Location: Unspecified
(39.1093°N, 0.0000°E)
Time: 00:47:43
(UTC+00:00)

UNISAT 6 - Visible Passes

Search period start: 04 April 2026 00:00
Search period end: 14 April 2026 00:00
Orbit: 574 x 636 km, 97.8° (Epoch: 28 March)

Date Brightness Start Highest point End Pass type
(mag) Time Alt. Az. Time Alt. Az. Time Alt. Az.
4 Apr ? 02:31:51 23° NE 02:31:51 23° NE 02:34:22 10° NNE visible
4 Apr ? 04:08:40 17° NW 04:08:40 17° NW 04:10:01 10° NW visible
5 Apr ? 02:44:18 31° NE 02:44:18 31° NE 02:47:11 10° N visible
5 Apr ? 04:21:08 14° WNW 04:21:08 14° WNW 04:22:05 10° NW visible
6 Apr ? 02:56:45 40° NNE 02:56:45 40° NNE 02:59:55 10° N visible
6 Apr ? 04:33:35 10° WNW 04:33:35 10° WNW 04:33:46 10° WNW visible
7 Apr ? 03:09:12 51° NNE 03:09:12 51° NNE 03:12:32 10° N visible
8 Apr ? 03:21:38 56° NNW 03:21:38 56° NNW 03:25:05 10° NNW visible
9 Apr ? 01:57:14 12° ENE 01:58:02 12° ENE 01:59:47 10° NE visible
9 Apr ? 03:34:05 49° NW 03:34:05 49° NW 03:37:34 10° NNW visible
10 Apr ? 02:09:40 16° ENE 02:10:24 17° ENE 02:13:08 10° NNE visible
10 Apr ? 03:46:30 38° WNW 03:46:30 38° WNW 03:49:58 10° NNW visible
11 Apr ? 02:22:05 21° E 02:22:47 22° ENE 02:26:09 10° NNE visible
11 Apr ? 03:58:55 29° W 03:58:55 29° W 04:02:15 10° NW visible
12 Apr ? 02:34:31 28° E 02:35:11 30° ENE 02:38:59 10° N visible
12 Apr ? 04:11:20 22° W 04:11:20 22° W 04:14:23 10° NW visible
13 Apr ? 02:46:56 38° E 02:47:36 40° ENE 02:51:42 10° N visible
13 Apr ? 04:23:45 16° W 04:23:45 16° W 04:26:18 10° NW visible
